Miscellaneous Local Product
Issued by NWS Hastings, NE

Home | Current Version | Previous Version | Text Only | Print | Product List | Glossary On
Versions: 1 2 3 4 5 6 7 8 9 10 11 12 13 14 15 16 17 18 19 20 21 22 23 24 25 26 27 28 29 30 31 32 33 34 35 36 37 38 39 40 41 42 43 44 45 46 47 48 49 50
000
AXUS43 KGID 220602
MISGRI

GID CWA HOURLY WEATHER ROUNDUP
NATIONAL WEATHER SERVICE HASTINGS NE
1200 AM CST MON DEC 22 2014

NOTE: "FAIR" INDICATES FEW OR NO CLOUDS BELOW 12,000 FEET WITH NO
SIGNIFICANT WEATHER AND/OR OBSTRUCTIONS TO VISIBILITY.

...SOUTH CENTRAL NEBRASKA...

CITY           SKY/WX    TMP DP  RH WIND       PRES   REMARKS
GRAND ISLAND   CLOUDY    42  39  89 S15       29.54F
HASTINGS       CLOUDY    41  38  89 S13       29.53F
KEARNEY        CLOUDY    39  37  93 S14       29.52S WCI  31
ORD            NOT AVBL
YORK           CLOUDY    41  41 100 S13       29.57F
AURORA         CLOUDY    42  42 100 S15       29.55F
LEXINGTON      CLOUDY    39  37  93 SW6       29.52R WCI  35
HOLDREGE       CLOUDY    39  37  93 S10       29.51S FOG     WCI  32
HEBRON         CLOUDY    43  41  92 S10       29.59F

...NEBRASKA PANHANDLE...

CITY           SKY/WX    TMP DP  RH WIND       PRES   REMARKS
CHADRON        CLOUDY    38  31  76 NW20G28   29.55R WCI  28
ALLIANCE       MOCLDY    37  28  70 NW15      29.56R WCI  28
SCOTTSBLUFF    CLOUDY    36  31  82 W15       29.61R WCI  27
SIDNEY         CLOUDY    37  30  75 NW15      29.60R WCI  28

...WESTERN AND NORTH CENTRAL NEBRASKA...

CITY           SKY/WX    TMP DP  RH WIND       PRES   REMARKS
VALENTINE      LGT RAIN  38  32  79 W10       29.47R WCI  31
AINSWORTH      MOCLDY    33  32  95 SW7       29.46S WCI  27
ONEILL         LGT RAIN  39  38  99 S13       29.49S WCI  31
BROKEN BOW     PTCLDY    36  34  92 CALM      29.49S
IMPERIAL       MOCLDY    40  31  70 NW17      29.55R WCI  31
NORTH PLATTE   CLOUDY    28  26  92 NW6       29.51R WCI  22
MCCOOK         MOCLDY    32  30  92 W8        29.52R FOG     WCI  25

...EASTERN NEBRASKA...

CITY           SKY/WX    TMP DP  RH WIND       PRES   REMARKS
NORFOLK        CLOUDY    42  40  92 S14       29.54F
SO SIOUX CITY  CLOUDY    42  40  92 SE13      29.60F FOG
TEKAMAH        LGT RAIN  43  41  93 S14       29.62F FOG
COLUMBUS       CLOUDY    43  39  87 S12       29.58F
ALBION         CLOUDY    40  38  91 S10       29.53S FOG     WCI  34
OMAHA EPPLEY   DRIZZLE   43  42  97 S17       29.65F FOG
OFFUTT AFB     CLOUDY    43  42  96 SE13      29.64F
MILLARD        DRIZZLE   44  42  93 SE12G18   29.64F
LINCOLN        CLOUDY    44  42  93 S15       29.62F
NEBRASKA CITY  CLOUDY    42  42 100 S14G21    29.66F FOG
BEATRICE       CLOUDY    42  42  97 S13       29.62F FOG
FALLS CITY     CLOUDY    43  41  93 SE12      29.68F

...NORTHERN KANSAS...

CITY           SKY/WX    TMP DP  RH WIND       PRES   REMARKS
GOODLAND       MOCLDY    41  35  79 W17       29.57R
HILL CITY      CLOUDY    42  37  82 SW10      29.53F
NORTON         CLOUDY    37  34  87 S7        29.51S WCI  32
PHILLIPSBURG   CLOUDY    43  43 100 SE6       29.55R
SMITH CENTER   CLOUDY    39  39 100 SE12      29.55F FOG     WCI  32
BELOIT         CLOUDY    45  43  93 SE10G16   29.58S
HAYS           CLOUDY    43  36  75 S13       29.56S
RUSSELL        CLOUDY    44  42  93 S15       29.54F
CONCORDIA      LGT RAIN  43  43 100 S14       29.60F FOG
SALINA         CLOUDY    45  43  93 S13       29.62F FOG
TOPEKA         CLOUDY    46  41  82 S13       29.71F



USA.gov is the U.S. government's official web portal to all federal, state and local government web resources and services.